Location: Central Falls
(41.8900°N, 71.3929°W)
Time: 12:07:52
(UTC+00:00)

A-11 Canister half - Pass Details

Date: 05 December 2023
Orbit: 1526 x 1682 km, 47.3° (Epoch: 20 February)

Event Time Altitude Azimuth Distance (km) Brightness Sun altitude
Rises 04:32:57 0° 292° (WNW) 4,922 - -70.4°
Reaches altitude 10° 04:36:09 10° 293° (WNW) 3,921 - -70.4°
Maximum altitude 04:46:14 82° 21° (NNE) 1,650 - -70.3°
Drops below altitude 10° 04:55:59 10° 110° (ESE) 3,797 - -70.0°
Sets 04:59:02 0° 111° (ESE) 4,760 - -69.9°
